Tracking 27107 objects as of 21-Mar-2023
HD Live streaming from Space Station
objects crossing your sky now

LES 9

Track LES 9 now!
LES 9 is classified as:


NORAD ID: 8747
Int'l Code: 1976-023B
Perigee: 35,698.6 km
Apogee: 35,885.4 km
Inclination: 20.1 °
Period: 1,436.0 minutes
Semi major axis: 42162 km
RCS: 3.1777 m2 (large)
Launch date: March 15, 1976
Source: United States (US)
Launch site: AIR FORCE EASTERN TEST RANGE (AFETR)

Original purpose was "Air Force sponsored program in space communications"; nuclear-powered; circuits jam-resistant to operate in hostile environment.
Your satellite tracking list
Your tracking list is empty




NASA's NSSDC Master Catalog

Two Line Element Set (TLE):
1 08747U 76023B   23079.50026324 -.00000107  00000-0  00000-0 0  9996
2 08747  20.0803  52.2321 0022143 141.8908  58.1716  1.00278007117809
Source of the keplerian elements: AFSPC